Other Public Products
Issued by NWS Grand Forks, ND

Home | Current Version | Previous Version | Graphics & Text | Print | Product List | Glossary On
Versions: 1 2 3 4 5 6 7 8 9 10 11 12 13 14 15 16 17 18 19 20 21 22 23 24 25 26 27 28 29 30 31 32 33 34 35 36 37 38 39 40 41 42 43 44 45 46 47 48 49 50
000
FPUS83 KFGF 031810
OPUFGF
PRAIRIE TO PINES WEATHER ROUNDUP
NATIONAL WEATHER SERVICE EASTERN NORTH DAKOTA/GRAND FORKS ND
100 PM CDT MON AUG 03 2015

 **SATELLITE DATA USED TO AUGMENT SKY COVER AT AUTOMATED STATIONS**
 *****  WEATHER ACROSS EASTERN NORTH DAKOTA  *****

CITY           SKY/WX    TMP DP  RH WIND       PRES   REMARKS
GRAND FORKS    MOSUNNY   74  51  44 NW14G21   29.93F
6HR MIN TEMP:  51; 6HR MAX TEMP:  74;

GRAND FORKS AF SUNNY     74  51  44 N15       29.94F
GRAND CITY NWS   N/A     73 N/A N/A N7          N/A
BUXTON         NOT AVBL
DEVILS LAKE    SUNNY     72  46  40 NW12G17   29.97F
6HR MIN TEMP:  54; 6HR MAX TEMP:  73;

FARGO          SUNNY     77  46  33 N18       29.94F
6HR MIN TEMP:  53; 6HR MAX TEMP:  77;

WAHPETON ARPT  CLEAR     75  43  31 NW14G21   29.95F
$$

 *****  WEATHER ACROSS CENTRAL AND WESTERN NORTH DAKOTA  *****

CITY           SKY/WX    TMP DP  RH WIND       PRES   REMARKS
JAMESTOWN      SUNNY     74  46  36 NW12      29.99F
6HR MIN TEMP:  54; 6HR MAX TEMP:  74;

BISMARCK       SUNNY     77  50  38 W9        30.02F
6HR MIN TEMP:  55; 6HR MAX TEMP:  78;

MINOT          SUNNY     76  45  33 W9        30.01S
6HR MIN TEMP:  53; 6HR MAX TEMP:  76;

MINOT AFB      SUNNY     80  45  29 VRB3      30.00F
6HR MIN TEMP:  50; 6HR MAX TEMP:  80;

GARRISON         N/A     74  49  41 VRB7      30.02F
6HR MIN TEMP:  51; 6HR MAX TEMP:  74;

WILLISTON      SUNNY     77  47  34 VRB6      30.03F
6HR MIN TEMP:  51; 6HR MAX TEMP:  78;

DICKINSON      SUNNY     76  48  37 E5        30.02F
6HR MIN TEMP:  48; 6HR MAX TEMP:  77;

HETTINGER      SUNNY     77  50  38 VRB6      30.04F
6HR MIN TEMP:  44; 6HR MAX TEMP:  78;

$$

 *****  OTHER OBSERVATIONS NORTHEAST NORTH DAKOTA  *****

CITY           SKY/WX    TMP DP  RH WIND       PRES   REMARKS
WALHALLA       FAIR      72  50  46 MISG      29.94S
LANGDON        FAIR      73  43  33 N14G21    29.97S
CAVALIER       FAIR      72  48  43 NW15G21   29.93F
GRAFTON        FAIR      72  52  49 NW15G24   29.94F
CANDO          NOT AVBL
FORT TOTTEN      N/A     75  53  45 NW6       29.95
ROLLA            N/A     70  43  37 N12G18    30.00S
RUGBY          NOT AVBL
 ***** THE ABOVE OBSERVATIONS ARE NON NWS ARE NOT QUALITY
        CONTROLLED AND MAY MIS-REPORT RAIN FOR SNOW...
$$

 *****  OTHER OBSERVATIONS SOUTHEAST NORTH DAKOTA *****

CITY           SKY/WX    TMP DP  RH WIND       PRES   REMARKS
COOPERSTOWN    NOT AVBL
VALLEY CITY    FAIR      73  46  38 NW12G18   29.98S
OAKES            N/A     77  52  41 NW12G18   29.99S
GWINNER        FAIR      75  52  43 NW13      29.98F
SHEYENNE NWR     N/A     76  47  35 NW10      29.95S
BUFFALO        NOT AVBL
WYNDMERE         N/A     77  50  38 NW12        N/A
 ***** THE ABOVE OBSERVATIONS ARE NON NWS ARE NOT QUALITY
       CONTROLLED AND MAY MIS-REPORT RAIN FOR SNOW...
$$

  *****  WEATHER ACROSS NORTHERN MINNESOTA  *****

CITY           SKY/WX    TMP DP  RH WIND       PRES   REMARKS
FLAG ISLAND    CLOUDY    63  54  72 NW17      29.85F
WARROAD        PTSUNNY   64  54  68 NW15      29.89F
ROSEAU         PTSUNNY   66  54  63 NW14G20   29.90R
HALLOCK        MOSUNNY   72  52  49 NW12G23   29.92F
THF RVR FALLS  MOSUNNY  N/A N/A N/A NW13G23   29.92F
6HR MIN TEMP:  52; 6HR MAX TEMP:  70;

HALSTAD        NOT AVBL
FOSSTON        PTSUNNY   70  50  49 NW13G21   29.93S
BAUDETTE       CLOUDY    64  52  64 NW13      29.87S
6HR MIN TEMP:  57; 6HR MAX TEMP:  65; 6HR PCP: TRACE;

WASKISH        CLOUDY    66  54  63 W10       29.88S
CROOKSTON      MOSUNNY   72  52  49 N16G23    29.94S
$$
  *****  WEATHER ACROSS CENTRAL AND WEST MINNESOTA  *****

CITY           SKY/WX    TMP DP  RH WIND       PRES   REMARKS
BEMIDJI        CLOUDY    67  50  52 W17G25    29.91R
PARK RAPIDS    PTSUNNY   74  47  38 NW18G28   29.92S
6HR MIN TEMP:  52; 6HR MAX TEMP:  74;

WADENA         SUNNY     73  46  38 NW13G18   29.93F
DETROIT LAKES  SUNNY     72  43  35 NW16      29.96S
MOORHEAD       SUNNY     73  48  40 NW15      29.95S
FERGUS FALLS   SUNNY     73  50  43 N15G21    29.94F
ELBOW LAKE     FAIR      73  51  45 NW12      29.95F
MORRIS MN      SUNNY     75  54  46 NW13      29.95F
STAPLES        MOSUNNY   73  43  33 NW14G25   29.92F
WHEATON        MOSUNNY   73  54  49 W12       29.97F
$$
  *****  WEATHER ELSEWHERE ACROSS MINNESOTA  *****

CITY           SKY/WX    TMP DP  RH WIND       PRES   REMARKS
DULUTH         PTSUNNY   67  51  56 NW13      29.85F
6HR MIN TEMP:  59; 6HR MAX TEMP:  69;

INTRNTL FALLS  CLOUDY    64  54  69 NW16G22   29.84S
6HR MIN TEMP:  59; 6HR MAX TEMP:  66; 6HR PCP:  0.01;

ELY            PTSUNNY   64  48  55 NW9G18    29.82S
CLOQUET        CLOUDY    68  48  49 W12G18    29.86F
BRAINERD       PTSUNNY   73  46  38 NW15G24   29.91S
6HR MIN TEMP:  58; 6HR MAX TEMP:  74;

HIBBING        CLOUDY    67  53  61 W12G21    29.86S
6HR MIN TEMP:  57; 6HR MAX TEMP:  67;

ALEXANDRIA     SUNNY     74  47  38 W18       29.96F
6HR MIN TEMP:  56; 6HR MAX TEMP:  74;

SAINT CLOUD    MOSUNNY   75  48  38 NW13G22   29.92F
6HR MIN TEMP:  56; 6HR MAX TEMP:  76;

MINNEAPOLIS    MOSUNNY   76  48  37 NW14      29.91F
6HR MIN TEMP:  62; 6HR MAX TEMP:  76;

$$

  *****  WEATHER ACROSS SOUTH DAKOTA  *****

CITY           SKY/WX    TMP DP  RH WIND       PRES   REMARKS
SIOUX FALLS    MOSUNNY   78  57  48 NW9       30.00S
6HR MIN TEMP:  58; 6HR MAX TEMP:  79;

BROOKINGS      MOSUNNY   75  55  50 NW14G20   30.01S
WATERTOWN      SUNNY     77  52  41 W12       29.99F
6HR MIN TEMP:  53; 6HR MAX TEMP:  77;

HURON          MOSUNNY   79  54  41 VRB5      29.98F
6HR MIN TEMP:  56; 6HR MAX TEMP:  80;

SISSETON         N/A     77  53  43 N12G21    29.96F
ABERDEEN       SUNNY     79  49  34 MISG      29.99F
6HR MIN TEMP:  53; 6HR MAX TEMP:  79;

MITCHELL       SUNNY     79  58  48 CALM      30.00S
PIERRE         SUNNY     80  53  39 CALM      30.00F
6HR MIN TEMP:  57; 6HR MAX TEMP:  81;

MOBRIDGE       SUNNY     79  56  45 W7        29.99F
RAPID CITY     SUNNY     79  57  46 E12       30.04F
6HR MIN TEMP:  58; 6HR MAX TEMP:  79;

$$

  *****  SOME WEATHER IN NEARBY STATES *****

CITY           SKY/WX    TMP DP  RH WIND       PRES   REMARKS
GLASGOW MT     SUNNY     80  47  31 SE12      29.99F
6HR MIN TEMP:  56; 6HR MAX TEMP:  80;

GREAT FALLS MT MOSUNNY   85  46  25 NE9       29.91F
6HR MIN TEMP:  56; 6HR MAX TEMP:  85;

CHEYENNE WY    PTSUNNY   84  40  21 S13G25    30.14S
6HR MIN TEMP:  59; 6HR MAX TEMP:  86;

SCOTTSBLUFF NE PTSUNNY   81  61  50 SE10      30.02F
6HR MIN TEMP:  59; 6HR MAX TEMP:  81;

OMAHA NE       LGT RAIN  77  62  59 CALM      29.97F
6HR MIN TEMP:  67; 6HR MAX TEMP:  78; 6HR PCP: TRACE;

DES MOINES IA  MOSUNNY   81  55  40 VRB6      29.95F
6HR MIN TEMP:  68; 6HR MAX TEMP:  81;

DAVENPORT IA   SUNNY     78  53  41 NW7       29.94S
6HR MIN TEMP:  63; 6HR MAX TEMP:  79;

CHICAGO IL     MOSUNNY   80  49  33 W14       29.86S
6HR MIN TEMP:  69; 6HR MAX TEMP:  80;

EAU CLAIRE WI  MOSUNNY   76  50  40 W21G26    29.86S
6HR MIN TEMP:  58; 6HR MAX TEMP:  77;

LA CROSSE WI   SUNNY     79  48  33 NW15      29.89S
6HR MIN TEMP:  62; 6HR MAX TEMP:  80;

$$

  *****  SOME NATIONAL WEATHER *****

CITY           SKY/WX    TMP DP  RH WIND       PRES   REMARKS
LA GUARDIA NY  MOSUNNY   89  59  36 S13G22    29.79F



USA.gov is the U.S. government's official web portal to all federal, state and local government web resources and services.